EHI
0 0 0 0 0 0 0 0 0 0 0 0 0 0 0 0 0 0 0 0 0 0 1 2 2 1 0 0 0 0 0 0 0 0 0 0 0 0 0 0 0 0 0 0
0 0 0 0 0 0 0 0 0 0 0 0 0 0 0 0 0 0 0 0 0 0 0 1 1 0 0 0 0 0 0 0 0 0 0 0 0 0 0 0 0 0 0 0
0 0 0 0 0 0 0 0 0 0 0 0 0 0 0 0 0 0 0 0 0 0 0 0 0 0 0 0 0 0 0 0 0 0 0 0 0 0 0 0 0 0 0 0
0 0 0 0 0 0 0 0 0 0 0 0 0 0 0 0 0 0 0 0 0 0 0 0 0 0 0 0 0 0 0 0 0 0 0 0 0 0 0 0 0 0 0 0
0 0 0 0 0 0 0 0 0 0 0 0 0 0 0 0 0 0 0 0 0 0 0 0 0 0 0 0 0 0 0 0 0 0 0 0 0 0 0 0 0 0 0 0
0 0 0 0 0 0 0 0 0 0 0 0 0 0 0 0 0 0 0 0 0 0 0 0 0 0 0 0 0 0 0 0 0 0 0 0 0 0 0 0 0 0 0 0
0 0 0 0 0 0 0 0 0 0 0 0 0 0 0 0 0 0 0 0 0 0 0 0 0 0 0 0 0 0 0 0 0 0 0 0 0 0 0 0 0 0 0 0
0 0 0 0 0 0 0 0 0 0 0 0 0 0 0 0 0 0 0 0 0 0 0 0 0 0 0 0 0 0 0 0 0 0 0 0 0 0 0 0 0 0 0 0
0 0 0 0 0 0 0 0 0 0 0 0 0 0 0 0 0 0 0 0 0 0 0 0 0 0 0 0 0 0 0 0 0 0 0 0 0 0 0 0 0 0 0 0
0 0 0 0 0 0 0 0 0 0 0 0 0 0 0 0 0 0 0 0 0 0 0 0 0 0 0 0 0 0 0 0 0 0 0 0 0 0 0 0 0 0 0 0
0 0 0 0 0 0 0 0 0 0 0 0 0 0 0 0 0 0 0 0 0 0 0 0 0 0 0 0 0 0 0 0 0 0 0 0 0 0 0 0 0 0 0 0
0 0 0 0 0 0 0 0 0 0 0 0 0 0 0 0 0 0 0 0 0 0 0 0 0 0 0 0 0 0 0 0 0 0 0 0 0 0 0 0 0 0 0 0
0 0 0 0 0 0 0 0 0 0 0 0 0 0 0 0 0 0 0 0 0 0 0 0 0 0 0 0 0 0 0 0 0 0 0 0 0 0 0 0 0 0 0 0
0 0 0 0 0 0 0 0 0 0 0 0 0 0 0 0 0 0 0 0 0 0 0 0 0 0 0 0 0 0 0 0 0 0 0 0 0 0 0 0 0 0 0 0
0 0 0 0 0 0 0 0 0 0 0 0 0 0 0 0 0 0 0 0 0 0 0 0 0 0 0 0 0 0 0 0 0 0 0 0 0 0 0 0 0 0 0 0
0 0 0 0 0 0 0 0 0 0 0 0 0 0 0 0 0 0 0 0 0 0 0 0 0 0 0 0 0 0 0 0 0 0 0 0 0 0 0 0 0 0 0 0
0 0 0 0 0 0 0 0 0 0 0 0 0 0 0 0 0 0 0 0 0 0 0 0 0 0 0 0 0 0 0 0 0 0 0 0 0 0 0 0 0 0 0 0
0 0 0 0 0 0 0 0 0 0 0 0 0 0 0 0 0 0 0 0 0 0 0 0 0 0 0 0 0 0 0 0 0 0 0 0 0 0 0 0 0 0 0 0
0 0 0 0 0 0 0 0 0 0 0 0 0 0 0 0 0 0 0 0 0 0 0 0 0 0 0 0 0 0 0 0 0 0 0 0 0 0 0 0 0 0 0 0
0 0 0 0 0 0 0 0 0 0 0 0 0 0 0 0 0 0 0 0 0 0 0 0 0 0 0 0 0 0 0 0 0 0 0 0 0 0 0 0 0 0 0 0
0 0 0 0 0 0 0 0 0 0 0 0 0 0 0 0 0 0 0 0 0 0 0 0 0 0 0 0 0 0 0 0 0 0 0 0 0 0 0 0 0 0 0 0
0 0 0 0 0 0 0 0 0 0 0 0 0 0 0 0 0 0 0 0 0 0 0 0 0 0 0 0 0 0 0 0 0 0 0 0 0 0 0 0 0 0 0 0
0 0 0 0 0 0 0 0 0 0 0 0 0 0 0 0 0 0 0 0 0 0 0 0 0 0 0 0 0 0 0 0 0 0 0 0 0 0 0 0 0 0 0 0
0 0 0 0 0 0 0 0 0 0 0 0 0 0 0 0 0 0 0 0 0 0 0 0 0 0 0 0 0 0 0 0 0 0 0 0 0 0 0 0 0 0 0 0
0 0 0 0 0 0 0 0 0 0 0 0 0 0 0 0 0 0 0 0 0 0 0 0 0 0 0 0 0 0 0 0 0 0 0 0 0 0 0 0 0 0 0 0
0 0 0 0 0 0 0 0 0 0 0 0 0 0 0 0 0 0 0 0 0 0 0 0 0 0 0 0 0 0 0 0 0 0 0 0 0 0 0 0 0 0 0 0
0 0 0 0 0 0 0 0 0 0 0 0 0 0 0 0 0 0 0 0 0 0 0 0 0 0 0 0 0 0 0 0 0 0 0 0 0 0 0 0 0 0 0 0
Wind_Speed
5 5 4 6 7 6 7 7 6 5 6 7 7 6 6 6 5 5 5 5 4 4 4 3 3 3 3 3 3 3 2 2 2 1 1 0 0 1 1 1 2 2 2 3
4 3 3 6 7 7 8 7 9 8 9 6 6 5 5 5 4 4 5 5 5 5 4 4 4 4 4 4 4 3 2 2 2 1 1 0 1 1 1 1 1 2 2 3
3 3 4 6 5 7 5 5 6 8 7 5 4 4 5 4 3 4 5 5 5 5 4 4 4 4 4 4 3 3 2 2 2 1 1 1 1 1 1 1 1 2 2 3
3 3 5 0 1 3 6 6 6 6 6 6 6 6 5 4 4 5 5 5 5 5 5 4 4 3 3 3 3 2 2 2 2 1 1 1 1 1 1 1 1 2 2 2
2 4 7 3 2 2 4 6 5 7 7 6 5 4 3 2 3 4 5 5 5 5 5 4 3 3 3 2 2 2 2 2 2 1 1 1 0 0 0 1 1 1 1 2
3 4 6 1 1 1 2 5 2 4 5 5 4 4 3 3 3 4 4 4 4 4 4 3 3 2 2 2 2 2 3 3 3 1 0 0 0 0 0 1 1 1 1 1
5 6 7 1 1 3 4 3 2 3 4 4 3 4 5 4 3 3 4 4 4 4 3 3 3 2 2 2 2 3 3 3 3 2 1 0 1 1 1 1 2 2 2 1
5 6 7 3 4 5 3 3 3 4 4 4 5 5 5 4 4 3 3 4 3 3 3 3 2 2 2 2 3 3 2 2 2 1 1 0 1 1 1 2 2 2 2 1
7 6 2 5 5 4 3 4 4 5 5 5 5 5 5 4 4 3 3 3 3 3 3 3 2 2 2 2 2 2 2 2 2 1 1 0 1 1 1 1 2 2 2 1
6 9 8 7 7 7 6 6 6 6 6 5 6 6 5 4 4 3 3 3 3 3 3 3 3 2 2 2 2 1 1 1 1 0 1 1 0 1 1 1 2 2 2 1
8 8 7 7 8 8 7 6 6 6 5 5 5 6 5 4 4 3 3 3 2 3 3 3 3 3 2 2 1 1 1 1 0 0 0 1 1 1 0 0 0 1 2 2
8 6 6 5 4 6 7 7 6 6 5 4 5 5 5 4 3 3 3 2 2 3 3 3 3 3 2 2 2 2 1 1 0 0 0 0 1 1 3 2 2 2 1 1
8 5 6 7 6 5 6 7 6 6 6 5 4 4 4 4 3 3 3 3 3 3 3 3 2 2 2 2 2 1 1 1 1 1 1 1 1 1 1 2 3 3 2 2
8 6 6 6 6 5 5 5 4 4 4 4 3 3 3 3 3 3 3 3 3 2 2 2 2 2 2 2 1 1 1 1 1 1 1 1 1 0 1 1 1 1 2 3
9 8 6 4 4 4 3 3 3 3 3 3 3 3 3 3 3 3 3 2 2 2 2 2 2 2 2 2 1 1 1 1 1 1 1 1 1 1 1 1 1 1 1 1
5 5 5 5 5 4 3 3 4 4 3 3 3 3 3 3 3 3 2 2 2 2 2 2 2 2 2 2 1 1 1 1 1 1 1 1 1 1 1 1 1 1 1 1
5 5 6 6 6 5 5 5 5 4 4 4 4 3 3 2 2 2 2 2 2 2 2 2 2 2 1 1 1 1 1 1 1 1 1 1 1 1 1 1 1 1 1 1
7 6 6 6 6 6 6 5 4 4 4 4 3 3 3 3 3 2 2 1 1 1 1 1 1 1 1 1 1 1 1 1 1 1 1 1 1 1 1 1 2 1 1 1
6 5 5 6 5 5 5 4 4 4 4 3 3 4 3 3 3 2 2 1 1 1 2 1 1 1 1 1 1 1 1 1 1 1 1 2 1 1 1 1 1 1 1 1
4 4 4 4 4 4 4 4 4 3 3 3 3 3 3 3 2 2 2 2 2 2 1 1 1 1 1 1 0 0 0 0 1 1 1 1 2 1 1 1 1 1 1 1
4 4 4 4 4 4 4 4 4 3 3 4 4 4 3 3 2 2 2 2 1 1 1 1 1 1 1 0 0 0 0 0 0 1 1 1 2 2 1 1 1 1 1 1
4 4 4 3 3 3 2 3 3 3 3 3 3 3 3 3 3 2 2 2 1 1 1 1 1 0 0 0 0 0 0 0 0 0 1 1 1 2 2 2 1 1 1 1
3 3 4 4 3 2 2 2 3 3 4 4 4 4 3 3 2 2 2 1 1 1 0 0 0 1 1 0 0 0 0 0 0 0 0 1 1 1 1 1 1 1 1 1
3 3 3 2 2 2 3 2 2 2 2 2 3 3 3 2 2 1 1 1 1 1 0 0 0 1 1 0 1 0 0 0 0 0 0 0 0 0 1 1 1 1 1 1
3 3 3 4 4 3 3 2 2 2 2 2 2 2 2 2 2 1 1 1 1 0 0 0 0 0 0 1 1 1 0 0 0 0 0 1 1 1 1 1 1 1 1 1
3 3 3 3 3 2 2 3 2 2 2 2 1 1 1 1 1 1 1 1 1 1 0 0 0 1 1 1 1 1 0 0 0 0 0 0 1 0 0 0 1 1 1 1
3 3 2 2 2 3 3 3 3 3 3 3 2 2 2 2 2 2 2 1 1 1 1 1 1 1 1 1 1 1 1 1 1 0 0 0 0 0 0 0 0 1 1 1
Wind_Direction
277 276 264 263 261 233 221 237 247 256 270 291 307 315 321 324 328 338 345 348 347 340 341 341 344 346 345 350 355 355 355 351 334 340 347 11 136 136 141 157 167 167 168 169
271 245 271 271 265 245 240 242 250 263 277 299 305 307 310 317 321 332 337 337 337 343 343 338 337 340 340 343 347 346 352 354 347 2 359 32 100 126 132 137 147 158 169 172
267 311 283 256 249 223 221 225 233 250 273 307 305 303 304 305 309 320 326 328 328 331 338 335 329 330 327 330 333 341 352 357 354 29 26 30 106 133 143 152 150 165 172 177
284 298 248 1 99 232 232 246 243 263 284 296 292 298 301 296 304 314 320 319 321 326 329 328 325 326 326 329 333 343 351 355 355 15 30 31 81 125 152 161 167 175 176 179
245 266 274 271 214 213 233 265 255 256 276 295 305 294 285 299 312 309 309 312 315 317 320 323 327 334 333 331 338 348 349 348 348 351 6 21 61 100 136 153 160 167 169 171
216 247 258 311 87 273 236 265 263 251 268 288 308 286 320 346 322 313 316 317 316 319 323 325 328 332 328 328 336 341 337 333 334 324 310 279 237 175 167 153 150 139 144 165
226 245 267 301 158 192 222 294 329 268 268 272 270 279 313 318 311 314 316 316 318 320 320 319 321 321 311 317 323 324 326 327 326 316 310 265 208 182 155 142 138 133 137 142
205 225 250 144 160 206 261 316 286 284 281 276 281 286 294 299 304 313 315 315 320 321 318 320 318 306 302 311 318 321 327 326 322 320 323 278 156 145 150 149 142 144 141 137
212 232 293 186 217 246 266 266 280 286 285 278 278 281 288 290 294 300 304 309 314 314 312 316 316 305 295 307 315 315 322 321 319 329 341 95 154 151 148 154 154 152 151 147
250 255 256 249 252 259 258 261 275 280 280 274 271 276 279 281 286 291 297 302 307 308 307 312 320 315 299 298 295 292 300 309 311 5 30 50 94 146 165 169 165 163 164 170
251 267 275 254 246 252 256 261 269 276 272 267 263 268 270 272 275 279 287 294 294 292 295 302 311 311 308 297 281 275 277 285 319 23 50 73 63 52 67 80 187 191 188 185
240 236 238 260 260 250 252 261 268 272 273 269 260 264 267 268 267 265 269 277 280 283 284 292 299 303 306 296 270 251 249 264 300 337 120 134 109 74 59 70 58 43 61 170
248 259 260 272 274 263 259 265 269 266 264 268 264 258 259 263 265 259 257 258 262 268 271 278 288 297 305 302 282 261 252 261 257 235 207 185 168 137 98 75 71 76 84 101
243 250 259 257 260 263 265 268 269 268 266 261 258 252 248 252 257 253 255 258 261 263 262 270 286 300 311 307 294 283 269 261 255 236 213 200 187 185 177 152 122 80 86 92
240 239 249 266 270 266 262 259 258 261 264 261 250 244 236 238 248 256 263 256 250 248 254 262 277 296 310 300 281 271 262 253 253 220 201 189 179 186 178 168 152 126 98 105
236 237 242 247 253 256 254 247 247 256 257 254 247 244 244 244 251 258 251 235 229 240 250 253 269 287 295 283 271 271 262 246 261 210 179 170 172 177 171 164 160 151 152 153
209 225 229 237 242 247 247 246 244 248 249 249 246 244 240 236 239 238 244 245 245 252 254 249 266 286 289 283 277 262 247 217 218 203 176 176 181 182 174 168 169 169 177 180
232 236 230 231 234 240 247 247 244 242 242 244 234 224 222 217 221 229 240 239 251 287 288 277 277 291 295 297 296 262 235 228 221 191 174 178 176 171 160 159 165 170 158 140
233 233 234 233 231 232 239 242 241 240 237 220 211 218 221 222 226 226 219 209 214 258 291 293 293 294 295 300 308 249 226 212 197 176 173 171 173 157 160 165 171 178 171 168
233 230 232 236 233 229 235 240 235 231 221 205 203 210 216 220 213 205 208 227 245 267 280 278 268 271 284 294 313 252 211 197 181 171 166 175 171 163 164 168 178 186 185 185
230 226 224 228 232 233 233 232 224 219 209 199 201 208 213 214 201 193 197 225 272 286 281 264 268 271 273 275 271 231 191 193 190 184 184 183 179 174 174 176 184 192 189 186
228 223 225 225 225 235 237 222 214 207 198 198 203 202 198 200 195 198 218 236 246 275 290 261 269 247 210 203 212 190 183 191 201 196 193 197 192 183 183 188 189 186 187 192
227 223 221 221 220 225 233 217 206 200 198 199 200 200 201 201 196 194 212 224 232 244 287 276 228 159 164 167 150 166 168 173 186 197 201 196 187 185 187 191 188 186 190 193
222 217 213 205 184 195 216 221 208 204 199 201 203 198 191 187 196 215 222 201 225 225 246 26 114 138 149 114 138 158 167 162 155 155 157 148 155 174 184 183 177 174 176 181
210 202 191 187 197 211 212 192 176 178 177 185 188 184 188 195 192 183 179 191 193 156 124 114 72 68 81 94 125 141 141 131 125 133 139 152 164 171 173 171 169 173 176 174
205 207 207 210 213 205 191 184 186 183 176 174 172 170 170 165 157 150 149 150 142 109 68 45 50 69 79 85 86 88 85 70 39 48 79 126 162 168 161 166 175 181 180 183
198 196 191 199 201 194 190 189 187 185 183 177 166 161 157 150 143 134 129 127 117 91 66 58 59 67 76 79 77 70 60 46 41 46 46 46 83 125 145 200 198 192 207 202